[[{"header":{"parameterUnit":"m.s-1","parameterCategory":2,"la1":30.2991,"la2":30.254,"lo1":-89.0895,"lo2":-89.0444,"dy":0.0017,"dx":0.0017,"nx":28,"ny":28,"refTime":"2026-01-31T03:00:00:Z","depth":"0","parameterNumber":2,"parameterNumberName":"U-component_of_CURRENTS"},"data":[0,0,0,0,0,0,0,0,0,0,0,0,0,0,0,0,0,0,0,0,0,0,0,0,0,0,0,0,0,0,0,0,0,0,0,0,0,0,0,0,0,0,0,0,0,0,0,0,0,0,0,0,0,0,0,0,0,0,-0.1584,-0.1584,0,-0.1548,-0.1547,-0.1547,-0.1541,-0.1541,-0.1541,-0.1542,-0.1588,-0.1589,-0.159,0,0,0,0,0,0,0,0,0,0,0,0,0,-0.1639,-0.1638,-0.1585,-0.1584,-0.1583,-0.1548,-0.1547,-0.1547,-0.1541,-0.1541,-0.1541,-0.1542,-0.1588,-0.1589,-0.159,0,0,0,0,0,0,0,0,0,0,0,0,0,-0.1613,-0.1638,-0.1585,-0.1574,-0.1573,-0.1548,-0.1547,-0.1547,-0.1541,-0.1541,-0.1542,-0.1542,-0.1587,-0.1589,-0.1591,-0.1598,0,0,-0.1596,-0.1597,0,0,0,0,0,0,0,0,-0.1614,-0.1611,-0.1576,-0.1575,-0.1573,-0.1547,-0.1583,-0.1567,-0.1541,-0.1556,-0.1542,-0.1542,-0.1581,-0.1583,-0.1578,-0.16,-0.1602,-0.1596,-0.1597,-0.1598,-0.1598,0,0,0,0,0,0,0,-0.1616,-0.1612,-0.1572,-0.1576,-0.1574,-0.1567,-0.1564,-0.158,-0.1571,-0.1554,-0.1553,-0.1545,-0.1581,-0.1576,-0.1579,-0.1603,-0.1596,-0.1598,-0.1599,-0.1599,-0.1607,-0.1607,0,0,0,0,0,0,-0.1616,-0.1614,-0.1573,-0.1571,-0.1592,-0.1566,-0.1563,-0.1557,-0.1569,-0.157,-0.1545,-0.1545,-0.1573,-0.1577,-0.1581,-0.1552,-0.1598,-0.1599,-0.16,-0.1608,-0.1607,-0.1606,0,0,0,0,0,0,-0.1617,-0.1613,-0.1575,-0.159,-0.1584,-0.1565,-0.1559,-0.1556,-0.1554,-0.1561,-0.1563,-0.1546,-0.1573,-0.1578,-0.1597,-0.1555,-0.16,-0.1602,-0.1609,-0.1608,-0.1607,-0.152,0,0,0,0,0,0,-0.1619,-0.1614,-0.1608,-0.159,-0.1583,-0.1556,-0.1558,-0.1555,-0.1548,-0.1547,-0.1562,-0.1566,-0.1574,-0.1594,-0.1599,-0.1559,-0.1603,-0.161,-0.1609,-0.1607,-0.1523,-0.1515,-0.1509,0,0,0,0,0,-0.1621,-0.1588,-0.1608,-0.1603,-0.1577,-0.1555,-0.1551,-0.154,-0.1548,-0.1541,-0.1557,-0.1566,-0.1587,-0.1596,-0.1601,-0.156,-0.1611,-0.1609,-0.1607,-0.1527,-0.1517,-0.1509,0,0,0,0,0,0,-0.1583,-0.1584,-0.1605,-0.1569,-0.1571,-0.1553,-0.1528,-0.1542,-0.1548,-0.1549,-0.1569,-0.1574,-0.1569,-0.1588,-0.1597,-0.1559,-0.1595,-0.1594,-0.1532,-0.1523,-0.1516,-0.1485,-0.1605,0,0,0,0,0,-0.1583,-0.1565,-0.1576,-0.1544,-0.1545,-0.1548,-0.1538,-0.1542,-0.1542,-0.1544,-0.1561,-0.157,-0.1563,-0.1565,-0.1572,-0.1564,-0.1559,-0.1538,-0.1531,-0.1524,-0.1503,-0.1474,-0.1461,-0.16,-0.16,-0.16,0,0,-0.1548,-0.1551,-0.1535,-0.1537,-0.1531,-0.1522,-0.1541,-0.152,-0.1507,-0.155,-0.1538,-0.1554,-0.1559,-0.1538,-0.1536,-0.1549,-0.1482,-0.1522,-0.1516,-0.1498,-0.1471,-0.1457,-0.1445,-0.1599,-0.1599,-0.1599,0,0,-0.1482,-0.1488,-0.1468,-0.1476,-0.1482,-0.1486,-0.1487,-0.1493,-0.1488,-0.1492,-0.1504,-0.1494,-0.1512,-0.1486,-0.1477,-0.1438,-0.1448,-0.1448,-0.1378,-0.1349,-0.1337,-0.1326,-0.1295,-0.1282,-0.1438,-0.1438,-0.1438,0,-0.1452,-0.1435,-0.1454,-0.145,-0.1441,-0.1473,-0.1457,-0.1451,-0.1465,-0.1455,-0.1478,-0.1465,-0.147,-0.1415,-0.139,-0.1414,-0.1411,-0.1408,-0.1337,-0.1326,-0.1317,-0.1287,-0.1274,-0.1433,-0.1434,-0.1434,-0.1435,0,-0.1393,-0.1384,-0.1362,-0.1378,-0.1374,-0.1354,-0.1368,-0.1368,-0.1379,-0.138,-0.1352,-0.1359,-0.1348,-0.1337,-0.1346,-0.1274,-0.1298,-0.1334,-0.1353,-0.1297,-0.127,-0.1258,-0.1427,-0.1429,-0.143,-0.1431,0,0,-0.1324,-0.1325,-0.1323,-0.1325,-0.1338,-0.1327,-0.1301,-0.1287,-0.1274,-0.1274,-0.1246,-0.1203,-0.1222,-0.1213,-0.1223,-0.1182,-0.11,-0.1221,-0.1222,-0.1178,-0.1037,-0.1025,-0.1011,-0.1133,-0.1131,-0.1129,-0.1042,0,-0.1282,-0.1256,-0.1268,-0.1237,-0.1226,-0.1246,-0.1224,-0.1217,-0.1218,-0.1207,-0.118,-0.117,-0.117,-0.1174,-0.1123,-0.1132,-0.1066,-0.112,-0.1108,-0.1107,-0.1093,-0.0995,-0.0976,-0.0895,-0.103,-0.1028,-0.1027,0,-0.124,-0.123,-0.1192,-0.1184,-0.1182,-0.1169,-0.1152,-0.1139,-0.1124,-0.1129,-0.1101,-0.1117,-0.1055,-0.108,-0.0999,-0.1043,-0.1011,-0.1001,-0.0999,-0.1005,-0.1071,-0.0977,-0.0868,-0.0853,-0.1008,-0.101,-0.1011,0,-0.1194,-0.118,-0.1145,-0.1141,-0.1137,-0.1119,-0.1117,-0.1109,-0.1103,-0.1087,-0.1097,-0.1043,-0.1037,-0.0984,-0.0958,-0.0983,-0.0879,-0.0923,-0.0863,-0.0864,-0.085,-0.0853,-0.0712,-0.0823,-0.0823,-0.0823,-0.0824,0,-0.1144,-0.1116,-0.1124,-0.1102,-0.1077,-0.1086,-0.1065,-0.1062,-0.1064,-0.1052,-0.1059,-0.1046,-0.1015,-0.0971,-0.0933,-0.0854,-0.0854,-0.0812,-0.0824,-0.0821,-0.0821,-0.0814,-0.0858,-0.082,-0.0821,-0.0821,-0.0822,0,-0.1076,-0.1084,-0.1053,-0.1049,-0.1052,-0.1033,-0.1049,-0.1034,-0.1052,-0.1041,-0.1041,-0.1037,-0.0981,-0.0937,-0.0861,-0.0828,-0.075,-0.0725,-0.0719,-0.073,-0.0672,-0.0715,-0.0637,-0.0612,-0.064,-0.0639,-0.0639,0,-0.1019,-0.0996,-0.1012,-0.1007,-0.0999,-0.0993,-0.099,-0.1017,-0.1013,-0.103,-0.1016,-0.0983,-0.0943,-0.0835,-0.0776,-0.0684,-0.0686,-0.0605,-0.063,-0.062,-0.0678,-0.073,-0.0719,-0.0578,-0.0577,-0.0576,-0.0575,0,-0.0895,-0.0918,-0.0903,-0.0917,-0.0917,-0.0926,-0.0927,-0.0935,-0.0962,-0.0961,-0.0941,-0.0918,-0.0854,-0.0763,-0.0668,-0.0614,-0.0618,-0.058,-0.0565,-0.059,-0.0642,-0.0642,-0.0692,-0.0565,-0.0566,-0.0567,-0.0568,-0.0568,-0.0788,-0.0775,-0.078,-0.0785,-0.0816,-0.0827,-0.0811,-0.083,-0.0821,-0.0807,-0.0834,-0.0788,-0.0748,-0.0626,-0.057,-0.0487,-0.0545,-0.0454,-0.0497,-0.0541,-0.0535,-0.0554,-0.0456,-0.0456,-0.0456,-0.0457,-0.0457,0,-0.0605,-0.0623,-0.0635,-0.0651,-0.0668,-0.072,-0.0737,-0.0713,-0.068,-0.0702,-0.0674,-0.0627,-0.0555,-0.0515,-0.0455,-0.042,-0.0417,-0.0391,-0.0449,-0.0432,-0.0424,-0.0437,-0.0336,-0.0336,-0.0336,-0.0336,-0.0336,-0.0336,-0.05,-0.0458,-0.0489,-0.0476,-0.0517,-0.0506,-0.0507,-0.0502,-0.0512,-0.0473,-0.0463,-0.0463,-0.0478,-0.0535,-0.0467,-0.0414,-0.0404,-0.041,-0.0406,-0.0404,-0.0413,-0.0422,-0.0438,-0.0339,-0.0339,-0.0383,-0.0383,-0.0384]},{"header":{"parameterUnit":"m.s-1","parameterCategory":2,"la1":30.2991,"la2":30.254,"lo1":-89.0895,"lo2":-89.0444,"dy":0.0017,"dx":0.0017,"nx":28,"ny":28,"refTime":"2026-01-31T03:00:00:Z","depth":"0","parameterNumber":3,"parameterNumberName":"V-component_of_CURRENTS"},"data":[0,0,0,0,0,0,0,0,0,0,0,0,0,0,0,0,0,0,0,0,0,0,0,0,0,0,0,0,0,0,0,0,0,0,0,0,0,0,0,0,0,0,0,0,0,0,0,0,0,0,0,0,0,0,0,0,0,0,-0.0858,-0.0856,0,-0.0647,-0.0644,-0.064,-0.059,-0.0592,-0.0594,-0.0596,-0.0285,-0.0275,-0.0265,0,0,0,0,0,0,0,0,0,0,0,0,0,-0.0986,-0.0984,-0.0858,-0.0856,-0.0854,-0.0647,-0.0643,-0.064,-0.0589,-0.0592,-0.0595,-0.0597,-0.0288,-0.0276,-0.0264,0,0,0,0,0,0,0,0,0,0,0,0,0,-0.0859,-0.0984,-0.0858,-0.0811,-0.0806,-0.0648,-0.0643,-0.0639,-0.0589,-0.0592,-0.0595,-0.0599,-0.0293,-0.0277,-0.0262,-0.0097,0,0,-0.0214,-0.0207,0,0,0,0,0,0,0,0,-0.0867,-0.0854,-0.082,-0.0814,-0.0808,-0.0656,-0.0575,-0.0456,-0.0588,-0.0661,-0.0596,-0.06,-0.0403,-0.0379,-0.032,-0.0083,-0.0069,-0.0213,-0.0203,-0.0197,-0.0192,0,0,0,0,0,0,0,-0.0876,-0.0861,-0.0765,-0.0818,-0.081,-0.0722,-0.0709,-0.055,-0.0506,-0.0655,-0.0653,-0.0643,-0.0399,-0.0335,-0.0312,-0.0065,-0.0213,-0.0199,-0.019,-0.0184,0.0244,0.0246,0,0,0,0,0,0,-0.0929,-0.087,-0.0771,-0.0759,-0.0857,-0.0719,-0.0703,-0.0694,-0.051,-0.0489,-0.0641,-0.0642,-0.036,-0.033,-0.0301,-0.0142,-0.0197,-0.0182,-0.0173,0.0242,0.0245,0.0247,0,0,0,0,0,0,-0.0933,-0.0922,-0.078,-0.0818,-0.0795,-0.0716,-0.0703,-0.0688,-0.0626,-0.0503,-0.0478,-0.0598,-0.0361,-0.0323,-0.0149,-0.0129,-0.0175,-0.0161,0.024,0.0243,0.0246,0.0206,0,0,0,0,0,0,-0.0937,-0.0924,-0.0901,-0.0821,-0.0795,-0.0652,-0.07,-0.0682,-0.062,-0.0619,-0.0456,-0.0431,-0.0361,-0.0173,-0.0133,-0.0108,-0.0149,0.0238,0.0241,0.0245,0.0205,0.0208,0.021,0,0,0,0,0,-0.0942,-0.0867,-0.0902,-0.0888,-0.0778,-0.0649,-0.0622,-0.0572,-0.0615,-0.0539,-0.0461,-0.0437,-0.0124,-0.0155,-0.0111,-0.0081,0.0236,0.024,0.0245,0.0204,0.0207,0.021,0,0,0,0,0,0,-0.0867,-0.0855,-0.089,-0.0809,-0.0739,-0.0644,-0.0562,-0.0562,-0.0438,-0.0441,-0.0364,-0.0327,-0.0181,-0.0108,-0.0146,0.0049,0.0044,0.0057,-0.0003,0.0001,0.0003,-0.0056,-0.0136,0,0,0,0,0,-0.0861,-0.0831,-0.0791,-0.0723,-0.0693,-0.064,-0.058,-0.0554,-0.0458,-0.041,-0.0317,-0.0221,-0.0119,-0.0045,0.0076,0.0226,0.0229,0.026,0.0262,0.0263,0.0244,0.0257,0.0257,0.0262,0.0262,0.0262,0,0,-0.0821,-0.0805,-0.0789,-0.071,-0.0658,-0.0582,-0.0606,-0.05,-0.0453,-0.0386,-0.026,-0.0182,-0.0076,0.0063,0.0131,0.0125,0.027,0.0269,0.0269,0.0249,0.0262,0.026,0.0259,0.0265,0.0264,0.0264,0,0,-0.07,-0.0707,-0.0642,-0.0594,-0.0524,-0.0496,-0.0478,-0.0385,-0.0356,-0.022,-0.0204,-0.0123,0.0083,0.0125,0.0174,0.0274,0.0284,0.0311,0.0284,0.0297,0.0295,0.0293,0.0308,0.0308,0.0308,0.0308,0.0308,0,-0.0645,-0.0601,-0.0585,-0.0507,-0.0491,-0.0474,-0.0409,-0.0342,-0.0211,-0.0206,-0.0179,-0.0005,0.0096,0.0174,0.0196,0.0275,0.0282,0.026,0.0294,0.0292,0.0291,0.0307,0.0307,0.0307,0.0307,0.0307,0.0307,0,-0.0492,-0.0469,-0.041,-0.0369,-0.0316,-0.0246,-0.0215,-0.016,-0.0157,-0.013,-0.0047,0.0071,0.0142,0.0189,0.0237,0.0269,0.0278,0.0291,0.027,0.0287,0.0305,0.0305,0.0305,0.0306,0.0306,0.0306,0,0,-0.0369,-0.0327,-0.0317,-0.0342,-0.0271,-0.023,-0.0161,-0.013,-0.0147,-0.0029,-0.0042,0.0114,0.0109,0.0161,0.0209,0.0229,0.0245,0.0253,0.0255,0.0238,0.027,0.0275,0.0277,0.0255,0.0255,0.0255,0.0288,0,-0.0278,-0.0199,-0.0183,-0.0141,-0.0131,-0.0137,-0.01,-0.0073,-0.0054,-0.0036,0.0009,0.0061,0.0117,0.0133,0.0162,0.0226,0.0243,0.0234,0.0282,0.0283,0.026,0.0276,0.0293,0.0323,0.0289,0.0289,0.0289,0,-0.016,-0.0155,-0.0113,-0.0167,-0.0159,-0.0119,-0.0168,-0.012,-0.0099,-0.0087,-0.0058,-0.002,0.0033,0.0071,0.0157,0.0146,0.02,0.0245,0.0247,0.0258,0.0289,0.0303,0.0326,0.0415,0.029,0.029,0.029,0,-0.0178,-0.013,-0.0144,-0.0142,-0.0144,-0.0154,-0.0157,-0.0145,-0.015,-0.0131,-0.0136,-0.0078,-0.0045,0.0022,0.0131,0.0139,0.0212,0.0235,0.0287,0.0288,0.0314,0.0317,0.0398,0.0274,0.0274,0.0274,0.0274,0,-0.0143,-0.0154,-0.0166,-0.0177,-0.0217,-0.02,-0.0231,-0.0226,-0.0221,-0.0227,-0.0175,-0.0159,-0.0058,0.0005,0.0096,0.0195,0.0188,0.0273,0.0292,0.0306,0.0308,0.0396,0.0444,0.0275,0.0275,0.0275,0.0275,0,-0.0155,-0.0156,-0.0185,-0.0214,-0.0227,-0.0256,-0.0278,-0.0298,-0.0286,-0.0291,-0.0286,-0.0222,-0.0132,-0.0035,0.0083,0.0153,0.0305,0.0278,0.0288,0.0306,0.0428,0.0473,0.0563,0.0634,0.0331,0.0331,0.0331,0,-0.0152,-0.0168,-0.0222,-0.0252,-0.0262,-0.03,-0.0325,-0.0328,-0.0339,-0.0315,-0.0317,-0.0247,-0.0172,-0.0013,0.0114,0.0246,0.0334,0.0325,0.0342,0.0428,0.0494,0.0529,0.0586,0.0374,0.0374,0.0375,0.0375,0,-0.0157,-0.0178,-0.0209,-0.0278,-0.0316,-0.0361,-0.0388,-0.041,-0.0399,-0.0382,-0.033,-0.0269,-0.0128,0.0031,0.0176,0.0261,0.04,0.0337,0.0428,0.0529,0.057,0.065,0.0361,0.0379,0.0378,0.0378,0.0378,0.0378,-0.0152,-0.0185,-0.023,-0.0292,-0.0344,-0.0392,-0.0415,-0.0418,-0.0412,-0.0352,-0.0319,-0.0202,-0.0032,0.0186,0.0274,0.0444,0.0459,0.0513,0.056,0.0586,0.0657,0.037,0.0406,0.0406,0.0406,0.0406,0.0406,0,-0.0131,-0.0175,-0.0241,-0.0312,-0.0364,-0.0391,-0.0433,-0.0419,-0.0378,-0.031,-0.0226,-0.0049,0.0157,0.0317,0.0545,0.0664,0.0711,0.0726,0.0793,0.0842,0.0589,0.0592,0.0667,0.0667,0.0667,0.0667,0.0667,0.0667,-0.0118,-0.0166,-0.0213,-0.0298,-0.035,-0.0391,-0.0406,-0.036,-0.0308,-0.0161,-0.0055,0.0021,0.0207,0.0614,0.0859,0.0889,0.103,0.1011,0.1094,0.0927,0.0911,0.0895,0.0911,0.1051,0.1052,0.1344,0.1347,0.1349]}],[{"header":{"parameterUnit":"m.s-1","parameterCategory":2,"la1":30.2991,"la2":30.254,"lo1":-89.0895,"lo2":-89.0444,"dy":0.0017,"dx":0.0017,"nx":28,"ny":28,"refTime":"2026-01-31T03:00:00:Z","depth":"2","parameterNumber":2,"parameterNumberName":"U-component_of_CURRENTS"},"data":[0,0,0,0,0,0,0,0,0,0,0,0,0,0,0,0,0,0,0,0,0,0,0,0,0,0,0,0,0,0,0,0,0,0,0,0,0,0,0,0,0,0,0,0,0,0,0,0,0,0,0,0,0,0,0,0,0,0,-0.1799,-0.1799,0,-0.1776,-0.1775,-0.1774,-0.1752,-0.1752,-0.1752,-0.1752,-0.174,-0.174,-0.1739,0,0,0,0,0,0,0,0,0,0,0,0,0,-0.1804,-0.1804,-0.1799,-0.1799,-0.1799,-0.1776,-0.1775,-0.1774,-0.1752,-0.1752,-0.1752,-0.1752,-0.1741,-0.174,-0.1739,0,0,0,0,0,0,0,0,0,0,0,0,0,-0.1788,-0.1804,-0.1799,-0.1789,-0.1788,-0.1776,-0.1775,-0.1774,-0.1751,-0.1752,-0.1752,-0.1752,-0.1741,-0.174,-0.1739,-0.1728,0,0,-0.1737,-0.1737,0,0,0,0,0,0,0,0,-0.1789,-0.1787,-0.179,-0.179,-0.1789,-0.1772,-0.1773,-0.1761,-0.1751,-0.176,-0.1752,-0.1753,-0.1755,-0.1753,-0.174,-0.1728,-0.1727,-0.1737,-0.1736,-0.1736,-0.1736,0,0,0,0,0,0,0,-0.179,-0.1788,-0.1784,-0.1791,-0.179,-0.178,-0.1777,-0.177,-0.1752,-0.1759,-0.1759,-0.1765,-0.1754,-0.1741,-0.174,-0.1727,-0.1737,-0.1736,-0.1736,-0.1735,-0.1717,-0.1717,0,0,0,0,0,0,-0.1805,-0.1789,-0.1785,-0.1784,-0.1796,-0.178,-0.1777,-0.1772,-0.1752,-0.175,-0.1765,-0.1764,-0.1742,-0.1741,-0.174,-0.17,-0.1736,-0.1735,-0.1735,-0.1717,-0.1717,-0.1717,0,0,0,0,0,0,-0.1805,-0.1804,-0.1786,-0.1791,-0.1789,-0.178,-0.1775,-0.1772,-0.1774,-0.1757,-0.1755,-0.1772,-0.1742,-0.1741,-0.1743,-0.17,-0.1735,-0.1734,-0.1717,-0.1717,-0.1717,-0.1637,0,0,0,0,0,0,-0.1805,-0.1804,-0.1801,-0.1792,-0.1789,-0.1777,-0.1775,-0.1771,-0.1779,-0.1778,-0.1763,-0.1761,-0.1742,-0.1744,-0.1742,-0.17,-0.1734,-0.1717,-0.1717,-0.1717,-0.1639,-0.1634,-0.1629,0,0,0,0,0,-0.1805,-0.179,-0.18,-0.18,-0.1786,-0.1778,-0.1774,-0.1766,-0.178,-0.1771,-0.1771,-0.1762,-0.1742,-0.1744,-0.1741,-0.1698,-0.1717,-0.1717,-0.1717,-0.1642,-0.1635,-0.1629,0,0,0,0,0,0,-0.1773,-0.1787,-0.1798,-0.1784,-0.1787,-0.1776,-0.1767,-0.1778,-0.177,-0.1767,-0.1766,-0.1763,-0.174,-0.1751,-0.1753,-0.1698,-0.1726,-0.1726,-0.167,-0.1664,-0.1659,-0.1692,-0.1733,0,0,0,0,0,-0.1772,-0.1768,-0.1784,-0.1768,-0.1777,-0.1781,-0.1779,-0.1773,-0.177,-0.1767,-0.1758,-0.1751,-0.1735,-0.1729,-0.1712,-0.1694,-0.1735,-0.1667,-0.1662,-0.1657,-0.1686,-0.1739,-0.1742,-0.1716,-0.1716,-0.1716,0,0,-0.1752,-0.1761,-0.1756,-0.1763,-0.1764,-0.175,-0.1778,-0.1767,-0.1748,-0.1768,-0.1736,-0.1731,-0.1729,-0.169,-0.1681,-0.1695,-0.1676,-0.1657,-0.1653,-0.1685,-0.1739,-0.1742,-0.1744,-0.1716,-0.1716,-0.1716,0,0,-0.1699,-0.1726,-0.1704,-0.1711,-0.172,-0.1725,-0.1732,-0.1728,-0.1725,-0.1701,-0.1706,-0.1706,-0.1667,-0.1664,-0.1658,-0.1632,-0.1646,-0.1605,-0.1601,-0.165,-0.1653,-0.1656,-0.1664,-0.1668,-0.1603,-0.1603,-0.1603,0,-0.1671,-0.1683,-0.1694,-0.1676,-0.1717,-0.1719,-0.1734,-0.1693,-0.1682,-0.173,-0.1679,-0.1691,-0.1657,-0.1673,-0.1624,-0.1618,-0.1639,-0.1612,-0.1643,-0.1648,-0.1652,-0.166,-0.1666,-0.1599,-0.16,-0.16,-0.1601,0,-0.1605,-0.1632,-0.1626,-0.1624,-0.164,-0.1661,-0.1649,-0.1655,-0.1662,-0.1661,-0.1684,-0.1636,-0.1667,-0.162,-0.1588,-0.1605,-0.1603,-0.1625,-0.1655,-0.165,-0.1658,-0.1665,-0.1594,-0.1595,-0.1596,-0.1597,0,0,-0.1533,-0.1584,-0.1587,-0.1648,-0.1659,-0.1679,-0.1663,-0.1726,-0.1755,-0.1699,-0.176,-0.1678,-0.1686,-0.1682,-0.1648,-0.165,-0.1632,-0.1627,-0.1631,-0.1628,-0.171,-0.1592,-0.1589,-0.1654,-0.1656,-0.1658,-0.1684,0,-0.1517,-0.1555,-0.1568,-0.1621,-0.1688,-0.1728,-0.1722,-0.175,-0.176,-0.1777,-0.177,-0.1746,-0.1692,-0.1668,-0.1675,-0.1645,-0.1658,-0.1622,-0.1725,-0.1728,-0.1619,-0.1597,-0.1454,-0.1457,-0.1692,-0.1694,-0.1695,0,-0.1477,-0.1549,-0.1625,-0.176,-0.1785,-0.1762,-0.1892,-0.1872,-0.1888,-0.189,-0.1907,-0.1867,-0.1839,-0.1772,-0.1782,-0.1757,-0.1734,-0.1711,-0.1714,-0.1651,-0.1626,-0.1512,-0.1463,-0.1709,-0.1708,-0.1707,-0.1706,0,-0.1532,-0.1608,-0.1719,-0.175,-0.1833,-0.1875,-0.1894,-0.1926,-0.1934,-0.1931,-0.1924,-0.1942,-0.1883,-0.1899,-0.1804,-0.1796,-0.1811,-0.1817,-0.1716,-0.1707,-0.1634,-0.1614,-0.1868,-0.1868,-0.1868,-0.1868,-0.1868,0,-0.1592,-0.1655,-0.1739,-0.1797,-0.1872,-0.1914,-0.1955,-0.1969,-0.1975,-0.1962,-0.195,-0.1924,-0.1903,-0.1887,-0.1853,-0.1783,-0.1867,-0.1718,-0.1714,-0.1593,-0.157,-0.1845,-0.1842,-0.1869,-0.1868,-0.1868,-0.1868,0,-0.1592,-0.1676,-0.1764,-0.1875,-0.1889,-0.1911,-0.1919,-0.1926,-0.1944,-0.1918,-0.1894,-0.1898,-0.1859,-0.1852,-0.1845,-0.1802,-0.1776,-0.1746,-0.1569,-0.1541,-0.1632,-0.1625,-0.1652,-0.1649,-0.1645,-0.1643,-0.1641,0,-0.1589,-0.1647,-0.1754,-0.1759,-0.1777,-0.1812,-0.1804,-0.1865,-0.1857,-0.1885,-0.1856,-0.1835,-0.177,-0.173,-0.1656,-0.1608,-0.1703,-0.1464,-0.1429,-0.1621,-0.1615,-0.1612,-0.1609,-0.129,-0.1285,-0.1281,-0.1278,0,-0.1539,-0.1556,-0.1613,-0.164,-0.1642,-0.1675,-0.1677,-0.1695,-0.1748,-0.175,-0.1742,-0.1703,-0.1626,-0.1483,-0.14,-0.1367,-0.1455,-0.1377,-0.1662,-0.1349,-0.1277,-0.1271,-0.1281,-0.1242,-0.1246,-0.1248,-0.125,-0.1252,-0.1412,-0.1412,-0.1456,-0.1464,-0.1475,-0.1495,-0.1481,-0.1525,-0.1539,-0.1489,-0.1551,-0.142,-0.1392,-0.1151,-0.1108,-0.108,-0.1193,-0.1157,-0.1172,-0.1191,-0.1126,-0.1051,-0.0959,-0.0961,-0.0963,-0.0964,-0.0966,0,-0.1285,-0.1275,-0.1262,-0.1294,-0.1276,-0.1315,-0.1348,-0.1339,-0.1333,-0.1269,-0.1212,-0.1023,-0.0885,-0.089,-0.077,-0.0753,-0.0768,-0.0745,-0.0777,-0.0811,-0.0843,-0.0763,-0.0499,-0.0498,-0.0497,-0.0496,0,0,-0.1211,-0.1181,-0.1194,-0.1106,-0.1084,-0.1025,-0.1026,-0.1056,-0.1029,-0.0914,-0.0794,-0.0717,-0.0783,-0.0595,-0.0593,-0.0529,-0.0658,-0.0494,-0.0864,-0.0931,-0.096,-0.1073,-0.0987,0,0,0,0,0]},{"header":{"parameterUnit":"m.s-1","parameterCategory":2,"la1":30.2991,"la2":30.254,"lo1":-89.0895,"lo2":-89.0444,"dy":0.0017,"dx":0.0017,"nx":28,"ny":28,"refTime":"2026-01-31T03:00:00:Z","depth":"2","parameterNumber":3,"parameterNumberName":"V-component_of_CURRENTS"},"data":[0,0,0,0,0,0,0,0,0,0,0,0,0,0,0,0,0,0,0,0,0,0,0,0,0,0,0,0,0,0,0,0,0,0,0,0,0,0,0,0,0,0,0,0,0,0,0,0,0,0,0,0,0,0,0,0,0,0,0.0119,0.0118,0,0.0111,0.0112,0.0112,0.0144,0.0145,0.0145,0.0145,0.0195,0.0196,0.0197,0,0,0,0,0,0,0,0,0,0,0,0,0,0.0234,0.0232,0.0119,0.0118,0.0118,0.0111,0.0112,0.0112,0.0144,0.0145,0.0145,0.0146,0.0195,0.0196,0.0197,0,0,0,0,0,0,0,0,0,0,0,0,0,0.0207,0.0231,0.0119,0.0128,0.0128,0.0111,0.0112,0.0112,0.0144,0.0145,0.0145,0.0146,0.0194,0.0196,0.0197,0.0197,0,0,0.0202,0.0203,0,0,0,0,0,0,0,0,0.0208,0.0204,0.0127,0.0127,0.0127,0.0123,0.017,0.0141,0.0144,0.0145,0.0145,0.0146,0.0172,0.0175,0.0181,0.0199,0.0201,0.0202,0.0203,0.0204,0.0204,0,0,0,0,0,0,0,0.021,0.0205,0.0123,0.0126,0.0126,0.0156,0.0153,0.0165,0.0162,0.0145,0.0146,0.0134,0.0173,0.018,0.0183,0.0202,0.0202,0.0203,0.0204,0.0205,0.0308,0.0309,0,0,0,0,0,0,0.0192,0.0205,0.0123,0.0122,0.0162,0.0153,0.015,0.013,0.0161,0.0164,0.0133,0.0135,0.0177,0.0181,0.0185,0.0219,0.0204,0.0205,0.0206,0.0306,0.0308,0.031,0,0,0,0,0,0,0.0195,0.0185,0.0123,0.0159,0.0152,0.0149,0.0127,0.0129,0.0121,0.015,0.0155,0.0121,0.0178,0.0183,0.0206,0.022,0.0206,0.0207,0.0304,0.0306,0.0309,0.0267,0,0,0,0,0,0,0.0198,0.0186,0.0148,0.0157,0.0149,0.0094,0.0126,0.0128,0.011,0.0112,0.0141,0.0147,0.0178,0.0204,0.0208,0.0222,0.0208,0.0301,0.0305,0.0308,0.0266,0.0268,0.0269,0,0,0,0,0,0.0202,0.015,0.0146,0.0135,0.0103,0.0092,0.0091,0.0097,0.0109,0.0095,0.0137,0.0145,0.023,0.0206,0.021,0.0225,0.03,0.0304,0.0308,0.0265,0.0268,0.0269,0,0,0,0,0,0,0.0173,0.0148,0.0144,0.0084,0.0079,0.0095,0.007,0.0082,0.0102,0.0111,0.0149,0.0158,0.0193,0.0216,0.0189,0.0272,0.0273,0.0278,0.024,0.0242,0.0244,0.0232,0.021,0,0,0,0,0,0.0147,0.0109,0.0099,0.0052,0.0043,0.0055,0.0044,0.0057,0.0079,0.0087,0.0113,0.0162,0.0215,0.023,0.0271,0.0294,0.033,0.0317,0.0319,0.032,0.0318,0.0397,0.0405,0.0323,0.0323,0.0323,0,0,0.0125,0.0103,0.0081,0.0043,0.0042,0.0046,0.0051,0.0036,0.0057,0.009,0.0118,0.0157,0.0224,0.0269,0.0287,0.0285,0.0362,0.0325,0.0325,0.0323,0.0402,0.041,0.0416,0.0326,0.0326,0.0325,0,0,0.0092,0.004,0.0016,0.0012,-0.0002,0.0011,0.0002,0.0014,0.0028,0.0059,0.0109,0.0149,0.021,0.0264,0.0304,0.0336,0.0369,0.0357,0.0348,0.0424,0.0431,0.0437,0.048,0.0491,0.0357,0.0356,0.0356,0,0.0064,0.0036,0.0007,0.0001,-0.0001,-0.0002,0.0003,0.0017,0.0043,0.0066,0.0067,0.0188,0.0218,0.0302,0.0318,0.0336,0.0378,0.0326,0.0423,0.043,0.0437,0.0481,0.0493,0.0355,0.0355,0.0355,0.0355,0,0.0041,0.0019,0.0003,0.0002,-0.0004,-0.0011,0.0011,0.0018,0.0037,0.0071,0.0135,0.0185,0.026,0.028,0.0305,0.0379,0.0391,0.0412,0.0406,0.0442,0.0486,0.0499,0.0353,0.0353,0.0354,0.0354,0,0,-0.0011,-0.0013,-0.0015,-0.0004,-0.0003,-0.0001,0.0024,0.0054,0.0091,0.0118,0.0176,0.0245,0.0263,0.0309,0.0343,0.0394,0.0461,0.0415,0.0419,0.0436,0.0614,0.0457,0.0457,0.0502,0.0505,0.0507,0.0619,0,-0.0016,-0.0016,-0.0015,0.0003,0.0007,0.0021,0.005,0.0085,0.0119,0.0172,0.0223,0.0285,0.0281,0.0312,0.0364,0.0448,0.0497,0.0427,0.0596,0.06,0.0439,0.0467,0.0453,0.0537,0.0632,0.0634,0.0636,0,-0.0025,-0.0025,-0.0012,0.002,0.0022,0.004,0.0088,0.0115,0.0185,0.0214,0.0272,0.0313,0.0384,0.0376,0.0518,0.0477,0.0537,0.0589,0.0596,0.0471,0.0467,0.0523,0.0558,0.0658,0.0656,0.0655,0.0653,0,-0.0028,-0.0015,-0.0004,0.0003,0.0034,0.0052,0.0072,0.0131,0.0157,0.0235,0.0268,0.0364,0.0411,0.0507,0.0568,0.0568,0.0716,0.0742,0.0659,0.0649,0.0678,0.0663,0.0847,0.0847,0.0847,0.0847,0.0846,0,-0.0032,-0.0019,-0.0003,0.0003,0.0023,0.0052,0.009,0.0122,0.0182,0.022,0.0281,0.0315,0.0448,0.0528,0.0597,0.0639,0.0743,0.0652,0.0668,0.0658,0.0642,0.0783,0.0774,0.0851,0.085,0.0849,0.0848,0,-0.0035,-0.0023,-0.0011,0.0014,0.002,0.0035,0.0066,0.0098,0.0153,0.0205,0.0221,0.0307,0.038,0.0483,0.0638,0.0651,0.0726,0.0716,0.0658,0.066,0.061,0.0599,0.0664,0.0659,0.0655,0.0652,0.0649,0,-0.0035,-0.0031,-0.002,-0.0023,-0.0017,0.0004,0.0018,0.007,0.0098,0.0179,0.0199,0.0271,0.0259,0.0385,0.0474,0.0557,0.0623,0.0577,0.0551,0.0583,0.0593,0.0587,0.0581,0.0602,0.0599,0.0597,0.0595,0,-0.005,-0.0049,-0.0049,-0.0061,-0.0055,-0.0036,-0.0013,0.0002,0.007,0.0084,0.01,0.0082,0.0169,0.0213,0.029,0.035,0.0554,0.052,0.0644,0.0592,0.0518,0.0528,0.0527,0.0574,0.0576,0.0578,0.0579,0.058,-0.0075,-0.009,-0.0102,-0.0109,-0.01,-0.0084,-0.0071,-0.0055,-0.005,-0.0041,-0.0039,-0.0068,0.0023,0.0068,0.0177,0.0332,0.033,0.0397,0.041,0.0424,0.0338,0.0254,0.0246,0.0246,0.0247,0.0247,0.0247,0,-0.0133,-0.0143,-0.0153,-0.0162,-0.0162,-0.0136,-0.0098,-0.0101,-0.0122,-0.0135,-0.0193,-0.0168,-0.0153,0.0004,0.0186,0.0232,0.0318,0.0277,0.0405,0.0421,0.0437,0.0358,0.027,0.027,0.0271,0.0272,0,0,-0.0168,-0.0209,-0.0214,-0.0229,-0.0222,-0.0206,-0.0183,-0.0197,-0.0188,-0.0257,-0.0263,-0.0348,-0.0175,-0.0044,0.0069,0.0197,0.0303,0.0213,0.0179,0.0331,0.0347,0.0475,0.0363,0,0,0,0,0]}],[{"header":{"parameterUnit":"m.s-1","parameterCategory":2,"la1":30.2991,"la2":30.254,"lo1":-89.0895,"lo2":-89.0444,"dy":0.0017,"dx":0.0017,"nx":28,"ny":28,"refTime":"2026-01-31T03:00:00:Z","depth":"4","parameterNumber":2,"parameterNumberName":"U-component_of_CURRENTS"},"data":[0,0,0,0,0,0,0,0,0,0,0,0,0,0,0,0,0,0,0,0,0,0,0,0,0,0,0,0,0,0,0,0,0,0,0,0,0,0,0,0,0,0,0,0,0,0,0,0,0,0,0,0,0,0,0,0,0,0,-0.1036,-0.1037,0,-0.108,-0.1081,-0.1081,-0.1125,-0.1125,-0.1126,-0.1127,-0.1187,-0.1188,-0.1189,0,0,0,0,0,0,0,0,0,0,0,0,0,-0.0954,-0.0955,-0.1036,-0.1037,-0.1037,-0.108,-0.1081,-0.1081,-0.1125,-0.1125,-0.1126,-0.1127,-0.1187,-0.1188,-0.1189,0,0,0,0,0,0,0,0,0,0,0,0,0,-0.0992,-0.0955,-0.1036,-0.1065,-0.1068,-0.108,-0.1081,-0.1082,-0.1124,-0.1125,-0.1126,-0.1127,-0.1186,-0.1188,-0.1189,-0.1178,0,0,-0.1194,-0.1195,0,0,0,0,0,0,0,0,-0.099,-0.0995,-0.106,-0.1063,-0.1067,-0.1099,-0.1074,-0.1115,-0.1124,-0.1102,-0.1127,-0.1128,-0.1159,-0.1163,-0.1167,-0.1181,-0.1184,-0.1194,-0.1195,-0.1196,-0.1196,0,0,0,0,0,0,0,-0.0987,-0.0993,-0.1052,-0.1061,-0.1065,-0.1064,-0.1071,-0.1082,-0.1124,-0.1104,-0.1107,-0.1114,-0.1161,-0.1166,-0.1169,-0.1185,-0.1194,-0.1195,-0.1196,-0.1197,-0.1243,-0.1243,0,0,0,0,0,0,-0.0985,-0.099,-0.1051,-0.1054,-0.1031,-0.1065,-0.1072,-0.1087,-0.1123,-0.113,-0.1113,-0.1116,-0.1163,-0.1167,-0.1171,-0.121,-0.1196,-0.1197,-0.1198,-0.1243,-0.1243,-0.1244,0,0,0,0,0,0,-0.0983,-0.099,-0.1049,-0.1023,-0.1031,-0.1066,-0.1081,-0.1087,-0.1109,-0.113,-0.1137,-0.1131,-0.1164,-0.1169,-0.1185,-0.1211,-0.1198,-0.1199,-0.1242,-0.1243,-0.1243,-0.1256,0,0,0,0,0,0,-0.0981,-0.0989,-0.1007,-0.1024,-0.1033,-0.106,-0.108,-0.1087,-0.1111,-0.1115,-0.1147,-0.1153,-0.1165,-0.1183,-0.1187,-0.1213,-0.12,-0.1242,-0.1243,-0.1243,-0.1255,-0.1257,-0.1258,0,0,0,0,0,-0.0978,-0.0994,-0.1008,-0.1015,-0.1054,-0.106,-0.1064,-0.1091,-0.1111,-0.1115,-0.1135,-0.1153,-0.119,-0.1184,-0.1188,-0.1216,-0.1242,-0.1242,-0.1243,-0.1254,-0.1256,-0.1258,0,0,0,0,0,0,-0.0975,-0.1001,-0.1016,-0.1043,-0.1053,-0.1068,-0.1079,-0.1096,-0.1116,-0.1126,-0.1149,-0.1155,-0.1182,-0.119,-0.1182,-0.123,-0.1223,-0.1224,-0.123,-0.1232,-0.1233,-0.1229,-0.1201,0,0,0,0,0,-0.098,-0.0998,-0.1016,-0.1038,-0.1042,-0.1063,-0.1074,-0.1088,-0.1104,-0.1116,-0.1135,-0.116,-0.1185,-0.12,-0.1215,-0.1235,-0.1236,-0.1257,-0.1259,-0.126,-0.126,-0.1289,-0.1293,-0.1246,-0.1246,-0.1246,0,0,-0.0989,-0.1003,-0.1017,-0.1038,-0.1049,-0.105,-0.1072,-0.1086,-0.1097,-0.1117,-0.1139,-0.1163,-0.119,-0.1215,-0.1229,-0.1228,-0.127,-0.1261,-0.1262,-0.1261,-0.129,-0.1295,-0.1299,-0.1247,-0.1247,-0.1246,0,0,-0.0983,-0.1021,-0.1019,-0.1028,-0.1041,-0.1052,-0.1058,-0.1074,-0.1094,-0.1107,-0.1137,-0.1173,-0.1194,-0.1229,-0.1248,-0.1266,-0.1275,-0.1276,-0.1287,-0.1315,-0.132,-0.1323,-0.1309,-0.1312,-0.1281,-0.1281,-0.1281,0,-0.0992,-0.0999,-0.1019,-0.1012,-0.1027,-0.1052,-0.1051,-0.1068,-0.109,-0.1114,-0.1112,-0.1176,-0.1203,-0.1257,-0.1268,-0.1273,-0.1272,-0.1279,-0.1318,-0.1322,-0.1326,-0.1311,-0.1313,-0.1281,-0.1281,-0.1281,-0.1281,0,-0.0966,-0.0987,-0.0986,-0.0991,-0.1004,-0.1013,-0.1035,-0.1059,-0.1085,-0.1104,-0.1154,-0.1184,-0.1229,-0.1248,-0.1265,-0.1317,-0.13,-0.1315,-0.1314,-0.1331,-0.1314,-0.1316,-0.1282,-0.1282,-0.1282,-0.1282,0,0,-0.0952,-0.0967,-0.097,-0.0983,-0.1002,-0.1011,-0.1037,-0.1071,-0.1102,-0.1125,-0.1162,-0.1219,-0.1246,-0.127,-0.1304,-0.1332,-0.1358,-0.1335,-0.1337,-0.1321,-0.1388,-0.1276,-0.1268,-0.1382,-0.1383,-0.1384,-0.1357,0,-0.0929,-0.0925,-0.0937,-0.0953,-0.0961,-0.1004,-0.1027,-0.1066,-0.1099,-0.1135,-0.1189,-0.1227,-0.1251,-0.1281,-0.1315,-0.1347,-0.1368,-0.1361,-0.1373,-0.1373,-0.1272,-0.1269,-0.1387,-0.1359,-0.1359,-0.136,-0.136,0,-0.0895,-0.0904,-0.0912,-0.0958,-0.0965,-0.0979,-0.1044,-0.1064,-0.1125,-0.1153,-0.1204,-0.1233,-0.1289,-0.1301,-0.1357,-0.1349,-0.1373,-0.1388,-0.1388,-0.1282,-0.1266,-0.1343,-0.1365,-0.1364,-0.1364,-0.1364,-0.1363,0,-0.0875,-0.0894,-0.091,-0.0923,-0.0964,-0.0994,-0.1021,-0.1078,-0.1104,-0.1167,-0.1182,-0.1247,-0.1272,-0.1317,-0.1343,-0.1359,-0.1374,-0.1404,-0.1321,-0.1312,-0.1417,-0.1414,-0.1447,-0.1447,-0.1447,-0.1447,-0.1448,0,-0.085,-0.0868,-0.0909,-0.0919,-0.0949,-0.0985,-0.1021,-0.1064,-0.1112,-0.1127,-0.1191,-0.1197,-0.128,-0.1293,-0.133,-0.1304,-0.1366,-0.131,-0.1301,-0.1418,-0.1416,-0.1417,-0.1414,-0.1446,-0.1447,-0.1447,-0.1447,0,-0.0823,-0.0849,-0.0874,-0.0923,-0.0939,-0.0963,-0.1009,-0.1028,-0.1081,-0.11,-0.1117,-0.1165,-0.1175,-0.1222,-0.1274,-0.1264,-0.1271,-0.1255,-0.1334,-0.1333,-0.1194,-0.1192,-0.116,-0.1156,-0.1153,-0.115,-0.1147,0,-0.0802,-0.0813,-0.0867,-0.0878,-0.0901,-0.0938,-0.0954,-0.1011,-0.1021,-0.1061,-0.1054,-0.1079,-0.1104,-0.1056,-0.1134,-0.116,-0.1175,-0.1159,-0.1218,-0.1171,-0.1167,-0.117,-0.1173,-0.1142,-0.1141,-0.114,-0.1139,0,-0.0764,-0.0794,-0.0814,-0.0836,-0.0857,-0.0872,-0.0899,-0.0898,-0.0947,-0.1,-0.0959,-0.0961,-0.0957,-0.0984,-0.0996,-0.1031,-0.1157,-0.1123,-0.1132,-0.1188,-0.1148,-0.1148,-0.1155,-0.1127,-0.1129,-0.113,-0.1131,0,-0.0737,-0.0742,-0.0768,-0.0783,-0.0799,-0.0788,-0.0818,-0.0811,-0.0824,-0.0871,-0.0848,-0.0877,-0.0921,-0.0915,-0.093,-0.0938,-0.0962,-0.0961,-0.0979,-0.0993,-0.0957,-0.0884,-0.0761,0,0,0,0,0,-0.0699,-0.0696,-0.0705,-0.0706,-0.0717,-0.0724,-0.0763,-0.0794,-0.0838,-0.078,-0.0813,-0.0804,-0.0805,-0.0824,-0.081,-0.0897,-0.0985,-0.0878,-0.0997,-0.106,-0.1074,-0.1051,0,0,0,0,0,0,-0.0671,-0.0681,-0.0682,-0.063,-0.0614,-0.0612,-0.0635,-0.0674,-0.065,-0.0701,-0.0703,-0.0748,-0.0766,-0.0792,-0.0784,-0.0798,-0.0857,-0.0911,-0.0909,-0.1052,-0.1065,-0.1076,-0.1057,0,0,0,0,0]},{"header":{"parameterUnit":"m.s-1","parameterCategory":2,"la1":30.2991,"la2":30.254,"lo1":-89.0895,"lo2":-89.0444,"dy":0.0017,"dx":0.0017,"nx":28,"ny":28,"refTime":"2026-01-31T03:00:00:Z","depth":"4","parameterNumber":3,"parameterNumberName":"V-component_of_CURRENTS"},"data":[0,0,0,0,0,0,0,0,0,0,0,0,0,0,0,0,0,0,0,0,0,0,0,0,0,0,0,0,0,0,0,0,0,0,0,0,0,0,0,0,0,0,0,0,0,0,0,0,0,0,0,0,0,0,0,0,0,0,0.0241,0.0241,0,0.0177,0.0177,0.0176,0.0203,0.0205,0.0206,0.0208,0.0177,0.0174,0.0172,0,0,0,0,0,0,0,0,0,0,0,0,0,0.0309,0.0308,0.0241,0.0241,0.024,0.0178,0.0177,0.0175,0.0203,0.0205,0.0207,0.0209,0.0178,0.0175,0.0172,0,0,0,0,0,0,0,0,0,0,0,0,0,0.0264,0.0308,0.0241,0.0248,0.0248,0.0178,0.0176,0.0175,0.0202,0.0205,0.0208,0.021,0.0179,0.0175,0.0171,0.0096,0,0,0.016,0.0158,0,0,0,0,0,0,0,0,0.0267,0.0261,0.0247,0.0247,0.0247,0.0203,0.0189,0.0151,0.0202,0.0217,0.0208,0.0211,0.0188,0.0184,0.0162,0.0095,0.0093,0.016,0.0157,0.0156,0.0155,0,0,0,0,0,0,0,0.027,0.0264,0.0214,0.0247,0.0246,0.0227,0.0224,0.0181,0.0188,0.0216,0.0218,0.0214,0.0188,0.0166,0.0162,0.0093,0.016,0.0157,0.0154,0.0153,-0.0038,-0.004,0,0,0,0,0,0,0.0283,0.0267,0.0216,0.0212,0.0266,0.0225,0.0221,0.0213,0.0187,0.0186,0.0212,0.0215,0.0171,0.0166,0.0161,0.0076,0.0156,0.0152,0.015,-0.0035,-0.0038,-0.0041,0,0,0,0,0,0,0.0285,0.0279,0.0219,0.024,0.0232,0.0221,0.0211,0.021,0.0199,0.0184,0.0184,0.0204,0.0173,0.0166,0.0101,0.0076,0.0151,0.0147,-0.0031,-0.0036,-0.004,-0.0096,0,0,0,0,0,0,0.0287,0.0279,0.0272,0.0241,0.0231,0.0159,0.0209,0.0207,0.0193,0.0197,0.0177,0.0176,0.0174,0.0106,0.0097,0.0072,0.0145,-0.0028,-0.0033,-0.0038,-0.0091,-0.0102,-0.0111,0,0,0,0,0,0.0289,0.0253,0.0272,0.0266,0.0223,0.0156,0.0147,0.0149,0.019,0.0155,0.0143,0.0177,0.0068,0.0099,0.009,0.0064,-0.0025,-0.0032,-0.0038,-0.0086,-0.01,-0.0111,0,0,0,0,0,0,0.0264,0.0251,0.0272,0.0232,0.0197,0.0162,0.0131,0.0144,0.0107,0.012,0.0127,0.0121,0.0058,0.0054,0.009,-0.001,0.0032,0.0023,-0.0002,-0.0015,-0.0025,-0.0002,0.0141,0,0,0,0,0,0.026,0.0242,0.0217,0.0185,0.0167,0.0155,0.0133,0.0132,0.01,0.0089,0.0072,0.0052,0.0017,-0.0001,-0.0041,-0.0106,-0.008,-0.0128,-0.0138,-0.0146,-0.0138,-0.0129,-0.0137,-0.0062,-0.0062,-0.0062,0,0,0.0242,0.0234,0.0223,0.018,0.0159,0.0104,0.0146,0.0099,0.0062,0.0087,0.0021,0.0008,-0.0012,-0.0082,-0.0108,-0.0082,-0.0161,-0.0155,-0.0161,-0.0148,-0.0137,-0.0143,-0.0149,-0.0067,-0.0066,-0.0065,0,0,0.0176,0.0188,0.0143,0.0111,0.0075,0.0062,0.0051,0.0008,-0.0,-0.0077,-0.0053,-0.0081,-0.0159,-0.0163,-0.0175,-0.0271,-0.0219,-0.0284,-0.0313,-0.0306,-0.0311,-0.0314,-0.0307,-0.031,-0.0284,-0.0285,-0.0285,0,0.0155,0.0112,0.0113,0.0054,0.0034,0.0044,-0.0014,-0.0046,-0.0104,-0.011,-0.011,-0.0183,-0.0194,-0.0236,-0.0267,-0.0288,-0.0275,-0.0258,-0.0315,-0.0318,-0.032,-0.0312,-0.0314,-0.0288,-0.0288,-0.0287,-0.0287,0,0.0051,0.0022,-0.0014,-0.0063,-0.0098,-0.0147,-0.0174,-0.0208,-0.0207,-0.0222,-0.0272,-0.0299,-0.0322,-0.034,-0.0335,-0.0362,-0.0345,-0.0327,-0.027,-0.033,-0.0319,-0.032,-0.0293,-0.0292,-0.0291,-0.029,0,0,-0.0003,-0.0068,-0.0078,-0.0094,-0.0148,-0.0185,-0.0247,-0.0287,-0.0297,-0.0355,-0.0375,-0.0433,-0.0405,-0.0416,-0.0404,-0.0402,-0.0416,-0.0374,-0.0372,-0.0344,-0.0401,-0.0346,-0.0341,-0.0403,-0.0403,-0.0403,-0.039,0,-0.0075,-0.0169,-0.019,-0.0268,-0.0305,-0.0306,-0.0359,-0.0388,-0.0403,-0.0433,-0.0431,-0.0462,-0.0446,-0.0446,-0.0445,-0.0424,-0.0419,-0.0421,-0.0366,-0.0364,-0.0288,-0.034,-0.0404,-0.039,-0.039,-0.039,-0.039,0,-0.0167,-0.0202,-0.0284,-0.0317,-0.0336,-0.0387,-0.0408,-0.0455,-0.0482,-0.0493,-0.0504,-0.0498,-0.0507,-0.0483,-0.0468,-0.0469,-0.0437,-0.042,-0.0418,-0.034,-0.031,-0.0317,-0.0391,-0.0391,-0.0391,-0.0391,-0.0391,0,-0.0175,-0.0261,-0.0306,-0.0328,-0.0386,-0.041,-0.0436,-0.0467,-0.049,-0.0515,-0.0527,-0.0534,-0.0536,-0.0511,-0.0471,-0.047,-0.0445,-0.0435,-0.0357,-0.0353,-0.0376,-0.0372,-0.0413,-0.0413,-0.0413,-0.0413,-0.0413,0,-0.0225,-0.0265,-0.031,-0.0337,-0.0384,-0.0416,-0.0459,-0.0484,-0.0513,-0.0537,-0.0543,-0.0555,-0.0541,-0.0523,-0.0484,-0.0422,-0.0451,-0.0363,-0.0345,-0.0406,-0.0406,-0.0377,-0.0373,-0.0412,-0.0412,-0.0412,-0.0413,0,-0.0242,-0.0274,-0.0325,-0.0376,-0.0393,-0.0424,-0.0476,-0.0504,-0.0525,-0.0556,-0.0563,-0.0575,-0.0546,-0.0516,-0.0474,-0.0431,-0.0381,-0.0344,-0.0416,-0.0402,-0.0293,-0.0292,-0.0268,-0.0266,-0.0264,-0.0263,-0.0261,0,-0.0267,-0.0293,-0.0345,-0.0373,-0.0402,-0.0446,-0.0481,-0.0511,-0.0533,-0.0562,-0.0574,-0.0559,-0.0553,-0.0468,-0.0428,-0.0349,-0.0325,-0.0304,-0.0297,-0.0293,-0.0278,-0.028,-0.0282,-0.0259,-0.0258,-0.0258,-0.0257,0,-0.0303,-0.0315,-0.0349,-0.0398,-0.0438,-0.0482,-0.0523,-0.0532,-0.0561,-0.0577,-0.0574,-0.0536,-0.0496,-0.0444,-0.0376,-0.0319,-0.0327,-0.0285,-0.0289,-0.0282,-0.0281,-0.0269,-0.0273,-0.0251,-0.0252,-0.0253,-0.0253,0,-0.0327,-0.0351,-0.0387,-0.0427,-0.0475,-0.051,-0.0526,-0.0545,-0.0561,-0.0572,-0.0567,-0.0534,-0.0523,-0.0426,-0.0368,-0.0302,-0.0281,-0.0263,-0.0267,-0.0273,-0.0269,-0.0269,-0.0221,0,0,0,0,0,-0.0352,-0.0377,-0.0418,-0.0464,-0.0505,-0.053,-0.0559,-0.0565,-0.0572,-0.0564,-0.0562,-0.0519,-0.043,-0.0405,-0.0327,-0.0328,-0.0269,-0.0232,-0.0251,-0.0218,-0.0225,-0.0213,0,0,0,0,0,0,-0.0375,-0.0413,-0.0422,-0.048,-0.0513,-0.0561,-0.0575,-0.0578,-0.0564,-0.0562,-0.0517,-0.0494,-0.0411,-0.0479,-0.0328,-0.0309,-0.0306,-0.0195,-0.0193,-0.0214,-0.022,-0.0226,-0.0216,0,0,0,0,0]}]]